Flag for Germany Weather past 2 weeks in Biberach an der Riss, Baden-Württemberg, Germany

50 °F

Passing clouds.

Feels Like: 49 °F
Forecast: 46 / 57 °F
Wind: 3 mph from Northeast

Location: Laupheim Airport

Current Time: Oct 9, 2015 at 11:10:09 PM

Latest Report: Oct 9, 2015 at 10:20 PM

Visibility: N/A

Pressure: 30.09 "Hg (28.21 "Hg at 536m altitude)

Humidity: 88%

Dew point: 46 °F

Location of Biberach an der RissLocation

Historic Weather in Biberach an der Riss — Graph


Biberach an der Riss temperature yesterday

Maximum temperature yesterday: 57 °F (at 1:20 PM)
Minimum temperature yesterday: 50 °F (at 5:20 AM)
Average temperature yesterday: 52 °F

Past Weeks' High & Low Weather Summary

High70 °F (Oct 3, 4:20 PM)100% (Oct 4, 11:20 PM)30.48 "Hg (Oct 4, 11:20 PM)
Low37 °F (Sep 28, 6:20 AM)36% (Oct 1, 4:20 PM)29.74 "Hg (Oct 6, 12:20 PM)
Average52 °F75%30.16 "Hg
* Reported Sep 24 9:20 PM — Oct 9 9:20 PM, Biberach an der Riss, Weather by CustomWeather, © 2015

Note: Actual official high and low records may vary slightly from our data, if they occured in-between our weather recording intervals... More about our weather records


Biberach an der Riss weather history for previous 24 hours

Time TempWeatherWind HumidityBarometerVisibility
9:20 PM
Fri, Oct 9
52 °FPassing clouds.5 mph82%30.07 "HgN/A
8:20 PM52 °FPartly cloudy.5 mph88%30.09 "HgN/A
7:20 PM52 °FPartly sunny.5 mph88%30.07 "HgN/A
6:20 PM55 °FPartly sunny.3 mph77%30.07 "HgN/A
5:20 PM57 °FBroken clouds.8 mph67%30.07 "HgN/A
4:20 PM57 °FBroken clouds.7 mph72%30.07 "HgN/A
3:20 PM57 °FPartly sunny.8 mph72%30.07 "HgN/A
2:20 PM55 °FPartly sunny.8 mph77%30.09 "HgN/A
1:20 PM55 °FPartly sunny.6 mph77%30.09 "HgN/A
12:20 PM54 °FPartly sunny.6 mph82%30.09 "HgN/A
12:00 PM54 °FPartly sunny.5 mph82%30.12 "HgN/A
11:20 AM54 °FBroken clouds.5 mph82%30.12 "HgN/A
10:20 AM52 °FPartly sunny.6 mph88%30.12 "HgN/A
9:20 AM50 °FPartly sunny.5 mph88%30.12 "HgN/A
8:20 AM50 °FPassing clouds.2 mph88%30.12 "HgN/A
7:20 AM50 °FPassing clouds.5 mph88%30.12 "HgN/A
6:20 AM48 °FPassing clouds.2 mph94%30.12 "HgN/A
5:20 AM50 °FPassing clouds.No wind88%30.12 "HgN/A
4:20 AM48 °FPassing clouds.1 mph94%30.12 "HgN/A
3:20 AM50 °FPassing clouds.2 mph88%30.12 "HgN/A
2:20 AM48 °FPartly cloudy.3 mph94%30.12 "HgN/A
1:20 AM50 °FPartly cloudy.2 mph88%30.15 "HgN/A
12:20 AM50 °FOvercast.1 mph88%30.15 "HgN/A
11:20 PM
Thu, Oct 8
50 °FPassing clouds.3 mph88%30.15 "HgN/A
Weather by CustomWeather, © 2015

See weather overviewHow to use our weather pages